Lakeland Region, FL

12:30 PM EST on December 14, 2017 (GMT -0500)
Lakeland Linder Regional

Weather History for KLAL - January, 2014

Change the Weather History Date:

Thursday, January 23, 2014

  Actual Average Record
Temperature  
Mean Temperature 48 °F -  
Max Temperature 62 °F 68 °F 82 °F (1999)
Min Temperature 33 °F 48 °F 33 °F (2009)
Degree Days  
Heating Degree Days 18    
Moisture  
Dew Point 29 °F    
Average Humidity 63    
Maximum Humidity 93    
Minimum Humidity 22    
Precipitation  
Precipitation 0.00 in - - ()
Sea Level Pressure  
Sea Level Pressure 30.28 in    
Wind  
Wind Speed 2 mph (NE)    
Max Wind Speed 12 mph    
Max Gust Speed -    
Visibility 12 miles    
Events      
Averages and records for this station are not official NWS values.
T = Trace of Precipitation, MM = Missing Value Source: NWS Daily Summary

Daily Weather History Graph

Daily Weather History Graph

Search for Another Location

Airport or City:

Trip Planner

Search our weather history database for the weather conditions in past years. The results will help you decide how hot, cold, wet, or windy it might be!

Date:

Astronomy

Jan. 23, 2014 Rise Set
Actual Time 7:18 AM EST 6:01 PM EST
Civil Twilight 6:54 AM EST 6:26 PM EST
Nautical Twilight 6:25 AM EST 6:54 PM EST
Astronomical Twilight 5:57 AM EST 7:22 PM EST
Moon No Moon Rise 11:32 AM EST (1/23)
Length of Visible Light 11h 32m
Length of Day
10h 42m
Waning Gibbous, 55% of the Moon is Illuminated
Jan 23
Waning Gibbous
Jan 24
Last Quarter
Jan 30
New
Feb 6
First Quarter
Feb 14
Full

Hourly Weather History & Observations

Time (EST) Temp. Windchill Dew Point Humidity Pressure Visibility Wind Dir Wind Speed Gust Speed Precip Events Conditions
12:15 AM 35.6 °F - 32.0 °F 87% 30.21 in 10.0 mi Calm Calm - N/A   Clear
12:35 AM 35.6 °F - 32.0 °F 87% 30.21 in 10.0 mi Calm Calm - N/A   Clear
12:55 AM 35.6 °F - 32.0 °F 87% 30.21 in 10.0 mi Calm Calm - N/A   Clear
1:15 AM 35.6 °F - 32.0 °F 87% 30.21 in 10.0 mi Calm Calm - N/A   Clear
1:35 AM 35.6 °F - 32.0 °F 87% 30.20 in 10.0 mi Calm Calm - N/A   Clear
1:55 AM 33.8 °F - 32.0 °F 93% 30.21 in 10.0 mi Calm Calm - N/A   Clear
2:15 AM 35.6 °F - 32.0 °F 87% 30.21 in 10.0 mi Calm Calm - N/A   Clear
2:35 AM 35.6 °F - 32.0 °F 87% 30.21 in 10.0 mi Calm Calm - N/A   Clear
2:55 AM 33.8 °F - 32.0 °F 93% 30.21 in 10.0 mi Calm Calm - N/A   Clear
3:15 AM 35.6 °F 31.7 °F 32.0 °F 87% 30.21 in 10.0 mi North 4.6 mph - N/A   Clear
3:35 AM 33.8 °F 27.7 °F 32.0 °F 93% 30.21 in 10.0 mi North 6.9 mph - N/A   Clear
3:55 AM 35.6 °F 31.7 °F 32.0 °F 87% 30.21 in 10.0 mi NNE 4.6 mph - N/A   Clear
4:15 AM 35.6 °F 32.8 °F 32.0 °F 87% 30.22 in 10.0 mi NE 3.5 mph - N/A   Clear
4:35 AM 35.6 °F - 32.0 °F 87% 30.23 in 10.0 mi Calm Calm - N/A   Clear
4:55 AM 35.6 °F 31.7 °F 32.0 °F 87% 30.23 in 10.0 mi North 4.6 mph - N/A   Clear
5:15 AM 35.6 °F - 30.2 °F 81% 30.25 in 10.0 mi Calm Calm - N/A   Clear
5:35 AM 35.6 °F - 30.2 °F 81% 30.26 in 10.0 mi Calm Calm - N/A   Clear
5:58 AM 35.6 °F - 28.4 °F 75% 30.27 in 10.0 mi Calm Calm - N/A   Clear
6:50 AM 35.6 °F - 26.6 °F 70% 30.29 in 10.0 mi Calm Calm - N/A   Clear
7:50 AM 37.4 °F - 28.4 °F 70% 30.31 in 10.0 mi Calm Calm - N/A   Clear
8:50 AM 42.8 °F 39.3 °F 26.6 °F 53% 30.33 in 12.0 mi NNE 5.8 mph - N/A   Clear
9:50 AM 48.2 °F - 21.2 °F 34% 30.34 in 12.0 mi NNE 10.4 mph - N/A   Partly Cloudy
10:50 AM 51.8 °F - 17.6 °F 26% 30.34 in 15.0 mi NE 11.5 mph - N/A   Clear
11:51 AM 55.4 °F - 19.4 °F 25% 30.33 in 15.0 mi NE 9.2 mph - N/A   Clear
12:52 PM 57.2 °F - 21.2 °F 25% 30.30 in 15.0 mi ENE 5.8 mph - N/A   Partly Cloudy
1:52 PM 60.8 °F - 21.2 °F 22% 30.27 in 15.0 mi ENE 6.9 mph - N/A   Scattered Clouds
2:51 PM 60.8 °F - 21.2 °F 22% 30.26 in 15.0 mi NE 6.9 mph - N/A   Clear
3:50 PM 62.6 °F - 23.0 °F 22% 30.27 in 15.0 mi East 3.5 mph - N/A   Clear
4:50 PM 60.8 °F - 23.0 °F 23% 30.29 in 15.0 mi East 3.5 mph - N/A   Clear
5:50 PM 57.2 °F - 24.8 °F 29% 30.30 in 15.0 mi NE 4.6 mph - N/A   Clear
6:55 PM 51.8 °F - 28.4 °F 41% 30.33 in 15.0 mi NNE 3.5 mph - N/A   Clear
7:50 PM 48.2 °F - 30.2 °F 50% 30.34 in 15.0 mi NNE 4.6 mph - N/A   Clear
8:50 PM 48.2 °F - 30.2 °F 50% 30.36 in 15.0 mi NNE 4.6 mph - N/A   Clear
9:50 PM 48.2 °F - 30.2 °F 50% 30.36 in 15.0 mi NE 3.5 mph - N/A   Clear
9:55 PM 46.4 °F 42.9 °F 30.2 °F 53% 30.36 in 10.0 mi NNE 6.9 mph - N/A   Clear
10:15 PM 44.6 °F 41.4 °F 30.2 °F 57% 30.36 in 10.0 mi NE 5.8 mph - N/A   Clear
10:55 PM 44.6 °F 41.4 °F 32.0 °F 61% 30.37 in 10.0 mi NNE 5.8 mph - N/A   Clear
11:15 PM 42.8 °F 39.3 °F 32.0 °F 66% 30.37 in 10.0 mi NNE 5.8 mph - N/A   Clear
11:35 PM 44.6 °F 41.4 °F 32.0 °F 61% 30.38 in 10.0 mi NNE 5.8 mph - N/A   Clear
11:55 PM 42.8 °F 41.1 °F 32.0 °F 66% 30.38 in 10.0 mi NNE 3.5 mph - N/A   Clear